[[{"header":{"parameterUnit":"m.s-1","parameterCategory":1,"la1":30.2991,"la2":30.254,"lo1":-89.0895,"lo2":-89.0444,"dy":0.0017,"dx":0.0017,"nx":28,"ny":28,"refTime":"2025-08-18T21:00:00:Z","depth":0,"parameterNumber":2,"parameterNumberName":"U-component_of_WINDS"},"data":[0,0,0,0,0,0,0,0,0,0,0,0,0,0,0,0,0,0,0,0,0,0,0,0,0,0,0,0,0,0,0,0,0,0,0,0,0,0,0,0,0,0,0,0,0,0,0,0,0,0,0,0,0,0,0,0,0,0,-2.3392,-2.3391,0,-2.3344,-2.3344,-2.3343,-2.3296,-2.3295,-2.3295,-2.3294,-2.3244,-2.3244,-2.3243,0,0,0,0,0,0,0,0,0,0,0,0,0,-2.3444,-2.3443,-2.3392,-2.3391,-2.3391,-2.3344,-2.3344,-2.3343,-2.3296,-2.3295,-2.3294,-2.3294,-2.3245,-2.3244,-2.3243,0,0,0,0,0,0,0,0,0,0,0,0,0,-2.3411,-2.3443,-2.3392,-2.3362,-2.3358,-2.3344,-2.3344,-2.3343,-2.3296,-2.3295,-2.3294,-2.3293,-2.3245,-2.3244,-2.3243,-2.3254,0,0,-2.3239,-2.3239,0,0,0,0,0,0,0,0,-2.3413,-2.3409,-2.3367,-2.3364,-2.336,-2.3325,-2.3344,-2.3313,-2.3296,-2.332,-2.3294,-2.3293,-2.3272,-2.3268,-2.3261,-2.3252,-2.325,-2.3239,-2.3238,-2.3238,-2.3238,0,0,0,0,0,0,0,-2.3415,-2.3411,-2.3373,-2.3366,-2.3362,-2.3351,-2.3345,-2.3338,-2.3302,-2.3318,-2.3314,-2.3309,-2.327,-2.3263,-2.326,-2.3249,-2.3239,-2.3238,-2.3237,-2.3237,-2.3251,-2.3252,0,0,0,0,0,0,-2.3422,-2.3413,-2.3374,-2.3371,-2.3385,-2.3351,-2.3344,-2.3337,-2.3301,-2.3295,-2.331,-2.3307,-2.3265,-2.3261,-2.3258,-2.3271,-2.3238,-2.3237,-2.3236,-2.325,-2.3251,-2.3252,0,0,0,0,0,0,-2.3423,-2.3419,-2.3376,-2.3391,-2.3385,-2.3351,-2.3343,-2.3337,-2.3329,-2.3296,-2.3289,-2.3309,-2.3264,-2.326,-2.3256,-2.3269,-2.3236,-2.3235,-2.3248,-2.325,-2.3251,-2.3297,0,0,0,0,0,0,-2.3425,-2.342,-2.3423,-2.3392,-2.3384,-2.3375,-2.3344,-2.3336,-2.3328,-2.3324,-2.3293,-2.3287,-2.3263,-2.3258,-2.3255,-2.3267,-2.3234,-2.3247,-2.3249,-2.3251,-2.3294,-2.33,-2.3305,0,0,0,0,0,-2.3427,-2.3437,-2.3424,-2.3419,-2.3388,-2.3376,-2.3371,-2.3344,-2.3329,-2.3333,-2.3312,-2.3288,-2.3268,-2.3258,-2.3255,-2.3266,-2.3246,-2.3249,-2.3251,-2.3292,-2.3299,-2.3305,0,0,0,0,0,0,-2.3469,-2.3432,-2.3417,-2.3417,-2.34,-2.3368,-2.3371,-2.3351,-2.3338,-2.3335,-2.3301,-2.3294,-2.3296,-2.328,-2.327,-2.3277,-2.3254,-2.3256,-2.3287,-2.3293,-2.3298,-2.3302,-2.3234,0,0,0,0,0,-2.3479,-2.3472,-2.344,-2.3443,-2.3435,-2.3405,-2.3399,-2.3379,-2.336,-2.3353,-2.3331,-2.3314,-2.3304,-2.3298,-2.3286,-2.3293,-2.3286,-2.3299,-2.3304,-2.3309,-2.331,-2.3315,-2.3321,-2.326,-2.326,-2.326,0,0,-2.3497,-2.3477,-2.3474,-2.3451,-2.3435,-2.343,-2.3399,-2.3394,-2.339,-2.3351,-2.3348,-2.3332,-2.3311,-2.3313,-2.3313,-2.33,-2.3327,-2.3312,-2.3316,-2.3315,-2.3318,-2.3324,-2.333,-2.3261,-2.3261,-2.3261,0,0,-2.3529,-2.3512,-2.3514,-2.3501,-2.3478,-2.3459,-2.346,-2.3431,-2.342,-2.3416,-2.3388,-2.3383,-2.3366,-2.3353,-2.3344,-2.3376,-2.3355,-2.3374,-2.3401,-2.3406,-2.3411,-2.3415,-2.3428,-2.3433,-2.3375,-2.3376,-2.3376,0,-2.3555,-2.3546,-2.3518,-2.3515,-2.3507,-2.3474,-2.3477,-2.3465,-2.344,-2.3435,-2.3422,-2.3403,-2.3385,-2.3386,-2.3394,-2.3387,-2.3389,-2.3376,-2.3413,-2.3417,-2.342,-2.3432,-2.3437,-2.3378,-2.3378,-2.3377,-2.3377,0,-2.358,-2.3574,-2.3578,-2.3557,-2.355,-2.3549,-2.3523,-2.3518,-2.3501,-2.3483,-2.3482,-2.3461,-2.3446,-2.3445,-2.3427,-2.3444,-2.3437,-2.3419,-2.3395,-2.3429,-2.344,-2.3444,-2.3382,-2.3381,-2.338,-2.3379,0,0,-2.3633,-2.36,-2.3602,-2.3594,-2.3569,-2.3564,-2.3564,-2.3551,-2.3549,-2.3534,-2.3534,-2.3523,-2.3507,-2.3497,-2.3478,-2.3483,-2.3512,-2.3464,-2.3463,-2.3475,-2.3532,-2.3547,-2.3552,-2.3499,-2.3499,-2.35,-2.3535,0,-2.3662,-2.3659,-2.3636,-2.3641,-2.3637,-2.3608,-2.3608,-2.3594,-2.3579,-2.3573,-2.3556,-2.3549,-2.3528,-2.3522,-2.3526,-2.3508,-2.3523,-2.3505,-2.3499,-2.3499,-2.3506,-2.3557,-2.3571,-2.3605,-2.3538,-2.3539,-2.354,0,-2.3693,-2.3682,-2.3687,-2.3666,-2.3663,-2.3664,-2.3652,-2.3647,-2.3631,-2.362,-2.3612,-2.3591,-2.3591,-2.3569,-2.357,-2.3558,-2.3555,-2.3546,-2.3547,-2.3545,-2.3521,-2.3558,-2.3615,-2.362,-2.3546,-2.3545,-2.3545,0,-2.3734,-2.372,-2.3722,-2.3716,-2.369,-2.3692,-2.3682,-2.3665,-2.366,-2.365,-2.3647,-2.3637,-2.3632,-2.3625,-2.3603,-2.3589,-2.3607,-2.3583,-2.3599,-2.36,-2.3603,-2.3603,-2.3661,-2.3601,-2.3601,-2.3601,-2.3601,0,-2.3767,-2.3772,-2.3741,-2.3742,-2.3747,-2.3721,-2.3727,-2.3714,-2.3701,-2.37,-2.3674,-2.3674,-2.3645,-2.3642,-2.3625,-2.363,-2.3627,-2.3619,-2.3615,-2.3621,-2.3623,-2.3618,-2.3616,-2.3602,-2.3602,-2.3601,-2.3601,0,-2.3812,-2.3792,-2.3792,-2.377,-2.3765,-2.3769,-2.375,-2.3751,-2.3736,-2.3736,-2.3734,-2.371,-2.3706,-2.3684,-2.3674,-2.3663,-2.3674,-2.3664,-2.3679,-2.3676,-2.3694,-2.3693,-2.3751,-2.3758,-2.3694,-2.3694,-2.3695,0,-2.3835,-2.3838,-2.3817,-2.3815,-2.3807,-2.3803,-2.3799,-2.3775,-2.3772,-2.3757,-2.376,-2.3755,-2.3748,-2.3744,-2.3726,-2.3719,-2.371,-2.3731,-2.3708,-2.3716,-2.3711,-2.3712,-2.3713,-2.3735,-2.3736,-2.3737,-2.3737,0,-2.3878,-2.3869,-2.3863,-2.3856,-2.3852,-2.3844,-2.3835,-2.3835,-2.3809,-2.3807,-2.3804,-2.3799,-2.3791,-2.3786,-2.3777,-2.3768,-2.3749,-2.3745,-2.3748,-2.3755,-2.3765,-2.3761,-2.3693,-2.3743,-2.3743,-2.3742,-2.3742,-2.3742,-2.3913,-2.3916,-2.3902,-2.3898,-2.389,-2.3883,-2.3884,-2.387,-2.3867,-2.3859,-2.3846,-2.3844,-2.3832,-2.3819,-2.3811,-2.3811,-2.3799,-2.3804,-2.3805,-2.3807,-2.3812,-2.3765,-2.3809,-2.3809,-2.3808,-2.3808,-2.3808,0,-2.3955,-2.3947,-2.3943,-2.3933,-2.3931,-2.3915,-2.3906,-2.3905,-2.3904,-2.3895,-2.3891,-2.3888,-2.3885,-2.3868,-2.3863,-2.3866,-2.3858,-2.3866,-2.3865,-2.3864,-2.3821,-2.3819,-2.3873,-2.3873,-2.3873,-2.3873,-2.3873,-2.3873,-2.3977,-2.3982,-2.3972,-2.3973,-2.3964,-2.3964,-2.396,-2.3955,-2.3947,-2.3946,-2.3944,-2.3933,-2.3922,-2.3917,-2.3914,-2.3909,-2.3909,-2.392,-2.3913,-2.3873,-2.3866,-2.3861,-2.3859,-2.392,-2.392,-2.3956,-2.3956,-2.3956]},{"header":{"parameterUnit":"m.s-1","parameterCategory":1,"la1":30.2991,"la2":30.254,"lo1":-89.0895,"lo2":-89.0444,"dy":0.0017,"dx":0.0017,"nx":28,"ny":28,"refTime":"2025-08-18T21:00:00:Z","depth":0,"parameterNumber":3,"parameterNumberName":"V-component_of_WINDS"},"data":[0,0,0,0,0,0,0,0,0,0,0,0,0,0,0,0,0,0,0,0,0,0,0,0,0,0,0,0,0,0,0,0,0,0,0,0,0,0,0,0,0,0,0,0,0,0,0,0,0,0,0,0,0,0,0,0,0,0,2.6698,2.6698,0,2.6718,2.6718,2.6718,2.6752,2.6753,2.6753,2.6754,2.6773,2.6773,2.6773,0,0,0,0,0,0,0,0,0,0,0,0,0,2.6687,2.6687,2.6698,2.6698,2.6698,2.6718,2.6718,2.6719,2.6752,2.6753,2.6754,2.6754,2.6773,2.6773,2.6773,0,0,0,0,0,0,0,0,0,0,0,0,0,2.6697,2.6687,2.6698,2.6717,2.6719,2.6718,2.6718,2.6719,2.6752,2.6753,2.6754,2.6755,2.6773,2.6773,2.6773,2.6753,0,0,2.6772,2.6772,0,0,0,0,0,0,0,0,2.6697,2.6698,2.6714,2.6716,2.6718,2.6734,2.6721,2.673,2.6752,2.6739,2.6754,2.6755,2.6759,2.676,2.6762,2.6754,2.6755,2.6772,2.6772,2.6772,2.6772,0,0,0,0,0,0,0,2.6696,2.6697,2.6706,2.6715,2.6717,2.6725,2.6727,2.6723,2.6744,2.6741,2.6743,2.6745,2.676,2.6762,2.6762,2.6755,2.6772,2.6772,2.6772,2.6772,2.6731,2.673,0,0,0,0,0,0,2.6693,2.6696,2.6705,2.6706,2.671,2.6724,2.6727,2.6728,2.6744,2.6747,2.6744,2.6747,2.6761,2.6762,2.6763,2.674,2.6772,2.6772,2.6772,2.6732,2.6731,2.6729,0,0,0,0,0,0,2.6692,2.6693,2.6704,2.6702,2.6704,2.6723,2.6724,2.6728,2.6729,2.6747,2.675,2.6742,2.6762,2.6763,2.6755,2.6741,2.6772,2.6772,2.6733,2.6731,2.673,2.6694,0,0,0,0,0,0,2.6692,2.6693,2.6686,2.6702,2.6704,2.6696,2.6723,2.6727,2.6729,2.6732,2.6745,2.6749,2.6763,2.6755,2.6755,2.6741,2.6772,2.6734,2.6732,2.673,2.6696,2.6691,2.6687,0,0,0,0,0,2.6691,2.6675,2.6685,2.6686,2.6696,2.6695,2.6697,2.6714,2.6728,2.6721,2.6732,2.6748,2.6743,2.6754,2.6754,2.674,2.6735,2.6733,2.6731,2.6698,2.6692,2.6687,0,0,0,0,0,0,2.6656,2.6677,2.6689,2.6677,2.6684,2.6701,2.6693,2.6707,2.671,2.6713,2.6734,2.6737,2.6725,2.6733,2.6744,2.6721,2.6742,2.6739,2.6717,2.6711,2.6707,2.6704,2.6772,0,0,0,0,0,2.6647,2.6645,2.6664,2.6652,2.6655,2.6673,2.6673,2.6686,2.6694,2.6697,2.6708,2.6714,2.6714,2.6713,2.6714,2.6698,2.6701,2.6689,2.6684,2.668,2.6677,2.6667,2.6662,2.6722,2.6722,2.6722,0,0,2.6628,2.6639,2.6637,2.6645,2.6652,2.6649,2.6675,2.6671,2.6669,2.6697,2.6689,2.6697,2.6706,2.6693,2.6688,2.6698,2.6661,2.6677,2.6674,2.6673,2.6664,2.6659,2.6654,2.672,2.6721,2.6721,0,0,2.6591,2.6601,2.6591,2.6597,2.6608,2.662,2.6618,2.6633,2.6639,2.6632,2.6653,2.665,2.665,2.6655,2.6657,2.6623,2.6637,2.6623,2.6597,2.6587,2.6583,2.6579,2.6564,2.6559,2.662,2.662,2.662,0,2.6566,2.6563,2.6584,2.6578,2.658,2.6606,2.6596,2.6601,2.6611,2.6612,2.6624,2.6623,2.6631,2.6619,2.6611,2.6613,2.6609,2.662,2.6582,2.6578,2.6574,2.6561,2.6556,2.6618,2.6618,2.6618,2.6619,0,2.653,2.6528,2.6519,2.6528,2.6529,2.6521,2.654,2.6539,2.6552,2.6563,2.6555,2.6566,2.6569,2.6567,2.658,2.6557,2.6563,2.6578,2.6598,2.6566,2.6554,2.6549,2.6615,2.6616,2.6616,2.6617,0,0,2.647,2.6492,2.6488,2.6492,2.6506,2.6504,2.6497,2.65,2.6498,2.6505,2.6498,2.6497,2.6512,2.6514,2.6528,2.652,2.649,2.6536,2.6537,2.6525,2.6463,2.6449,2.6443,2.6501,2.65,2.6499,2.6461,0,2.6435,2.6424,2.6443,2.6427,2.6424,2.645,2.6443,2.6451,2.6461,2.646,2.6471,2.6469,2.6489,2.6491,2.6484,2.6495,2.6477,2.6498,2.6493,2.6493,2.6488,2.6437,2.6423,2.6387,2.6457,2.6456,2.6456,0,2.6391,2.6396,2.638,2.6394,2.6394,2.6388,2.6392,2.6391,2.64,2.6408,2.6411,2.6427,2.6421,2.6442,2.6432,2.6446,2.6445,2.645,2.6449,2.6448,2.647,2.6432,2.6376,2.637,2.6449,2.6449,2.645,0,2.6346,2.6349,2.6339,2.6342,2.6359,2.6354,2.6361,2.6371,2.6371,2.6375,2.6375,2.6379,2.6379,2.6381,2.6397,2.6412,2.6385,2.6408,2.639,2.6389,2.6381,2.6381,2.6322,2.6384,2.6384,2.6385,2.6385,0,2.6303,2.6292,2.6319,2.6313,2.6301,2.6323,2.631,2.6319,2.6328,2.6323,2.6346,2.6341,2.6364,2.6362,2.6375,2.6364,2.6364,2.637,2.6373,2.6366,2.6365,2.6364,2.6366,2.6383,2.6383,2.6384,2.6384,0,2.625,2.6268,2.6259,2.6276,2.628,2.627,2.6284,2.6279,2.6291,2.6285,2.6285,2.6304,2.6302,2.6319,2.6321,2.6329,2.6311,2.632,2.6308,2.631,2.629,2.629,2.6226,2.6218,2.6288,2.6287,2.6287,0,2.622,2.6212,2.6228,2.6227,2.6233,2.6231,2.6232,2.6253,2.6253,2.6262,2.6255,2.6256,2.6256,2.6252,2.6265,2.6266,2.6274,2.6251,2.6274,2.6267,2.6271,2.627,2.6268,2.6246,2.6245,2.6244,2.6244,0,2.6164,2.6173,2.6174,2.6177,2.6178,2.6182,2.6187,2.6185,2.6208,2.6206,2.6205,2.6206,2.6208,2.6207,2.621,2.6217,2.6233,2.6237,2.6232,2.6224,2.6216,2.6218,2.6292,2.6237,2.6238,2.6238,2.6239,2.6239,2.6119,2.6113,2.6123,2.6123,2.613,2.6134,2.6129,2.6141,2.6141,2.6144,2.6157,2.6153,2.6162,2.6168,2.6173,2.617,2.618,2.6174,2.6172,2.617,2.6165,2.6219,2.6171,2.6171,2.6171,2.6171,2.6171,0,2.6062,2.6071,2.6071,2.6077,2.6077,2.6094,2.6101,2.6099,2.6095,2.6103,2.6103,2.6101,2.6101,2.6114,2.6115,2.611,2.6117,2.6109,2.6108,2.6109,2.6156,2.6159,2.6103,2.6103,2.6103,2.6103,2.6103,2.6103,2.6033,2.6022,2.6033,2.6025,2.6034,2.603,2.6032,2.6036,2.6042,2.6039,2.6038,2.6048,2.6057,2.6059,2.6059,2.6063,2.6061,2.605,2.6056,2.6099,2.6106,2.6112,2.6115,2.605,2.605,2.6009,2.6008,2.6008]}]]